DW5222 Weather Reports


Display with metric or nautical units.
time (UTC)temp
F
wind
direction
speed
MPH
gust
MPH
rain 1hr
in
rain 24hr
in
rain mn
in
humidity
%
barometer
mb
20210510025704 55 242 0.0 0.0 0.00 0.00 0.00 69 1006.9
20210510025205 56 242 0.0 0.0 0.00 0.00 0.00 68 1007.0
20210510024205 55 242 0.0 0.0 0.00 0.00 0.00 70 1007.0
20210510023705 55 242 0.0 0.0 0.00 0.00 0.00 71 1007.0
20210510023204 55 242 0.0 0.0 0.00 0.00 0.00 72 1007.0
20210510022704 54 242 0.0 0.0 0.00 0.00 0.00 72 1007.0
20210510022204 54 242 0.0 0.0 0.00 0.00 0.00 74 1007.0
20210510021705 55 242 0.0 0.0 0.00 0.00 0.00 72 1007.0
20210510021205 55 242 0.0 0.0 0.00 0.00 0.00 71 1007.0
20210510020704 55 242 0.0 0.0 0.00 0.00 0.00 72 1007.0
20210510020204 55 242 0.0 0.0 0.00 0.00 0.00 73 1007.1
20210510015705 55 242 0.0 0.0 0.00 0.00 0.00 72 1007.1
20210510015205 55 242 0.0 0.0 0.00 0.00 0.00 72 1007.1
20210510014704 55 242 0.0 0.0 0.00 0.00 0.00 72 1007.0
20210510014204 55 242 0.0 0.0 0.00 0.00 0.00 70 1007.0
20210510013704 55 242 0.0 0.0 0.00 0.00 0.00 70 1007.0
20210510013204 55 242 0.0 0.0 0.00 0.00 0.00 70 1007.1
20210510012705 55 242 0.0 0.0 0.00 0.00 0.00 70 1007.0
20210510012205 56 242 0.0 0.0 0.00 0.00 0.00 69 1007.1
20210510011705 56 242 0.0 0.0 0.00 0.00 0.00 68 1007.1
20210510011205 56 242 0.0 1.0 0.00 0.00 0.00 68 1007.1
20210510010705 56 242 0.0 1.0 0.00 0.00 0.00 69 1007.2
20210510010205 56 242 0.0 1.0 0.00 0.00 0.00 70 1007.2
20210510005707 56 242 0.0 0.0 0.00 0.00 0.00 69 1007.2
20210510005205 56 242 0.0 0.0 0.00 0.00 0.00 68 1007.2
20210510004705 56 242 0.0 0.0 0.00 0.00 0.00 68 1007.1
20210510004204 57 242 0.0 0.0 0.00 0.00 0.00 69 1007.1
20210510003705 57 242 0.0 0.0 0.00 0.00 0.00 67 1007.2
20210510003205 57 242 0.0 0.0 0.00 0.00 0.00 66 1007.1
20210510002704 58 242 0.0 0.0 0.00 0.00 0.00 64 1007.2
20210510002205 57 242 0.0 0.0 0.00 0.00 0.00 63 1007.2
20210510001708 57 242 0.0 0.0 0.00 0.00 0.00 64 1007.2
20210510001205 58 242 0.0 0.0 0.00 0.00 0.00 66 1007.1
20210510000704 58 242 0.0 0.0 0.00 0.00 0.00 65 1007.1
20210510000205 58 242 0.0 0.0 0.00 0.00 0.00 66 1007.1
20210509235704 57 242 0.0 0.0 0.00 0.00 0.00 67 1007.1
20210509235208 57 242 0.0 0.0 0.00 0.00 0.00 68 1007.2
20210509234704 58 242 0.0 0.0 0.00 0.00 0.00 69 1007.3
20210509234205 58 242 0.0 0.0 0.00 0.00 0.00 68 1007.2
20210509233704 58 242 0.0 0.0 0.00 0.00 0.00 68 1007.4
20210509233205 58 242 0.0 0.0 0.00 0.00 0.00 66 1007.3
20210509232704 59 242 0.0 0.0 0.00 0.00 0.00 66 1007.3
20210509232204 59 242 0.0 0.0 0.00 0.00 0.00 66 1007.3
20210509231705 59 242 0.0 0.0 0.00 0.00 0.00 66 1007.3
20210509231206 59 242 0.0 0.0 0.00 0.00 0.00 67 1007.4
20210509230704 59 242 0.0 0.0 0.00 0.00 0.00 68 1007.4
20210509230205 59 242 0.0 0.0 0.00 0.00 0.00 66 1007.4
20210509225704 59 242 0.0 0.0 0.00 0.00 0.00 66 1007.4
20210509225205 60 242 0.0 0.0 0.00 0.00 0.00 66 1007.4
20210509224705 60 242 0.0 0.0 0.00 0.00 0.00 66 1007.4
20210509224204 60 242 0.0 0.0 0.00 0.00 0.00 64 1007.4
20210509223704 60 242 0.0 0.0 0.00 0.00 0.00 64 1007.3
20210509223205 60 242 0.0 0.0 0.00 0.00 0.00 63 1007.3
20210509222704 61 242 0.0 0.0 0.00 0.00 0.00 62 1007.3
20210509222205 61 242 0.0 0.0 0.00 0.00 0.00 62 1007.2
20210509221704 61 242 0.0 0.0 0.00 0.00 0.00 62 1007.2
20210509221205 61 242 0.0 0.0 0.00 0.00 0.00 61 1007.1
20210509220707 61 242 0.0 0.0 0.00 0.00 0.00 61 1007.1
20210509220204 61 242 0.0 0.0 0.00 0.00 0.00 61 1007.1
20210509215707 61 242 0.0 0.0 0.00 0.00 0.00 60 1007.1
20210509215206 61 242 0.0 0.0 0.00 0.00 0.00 60 1007.1
20210509214704 61 242 0.0 0.0 0.00 0.00 0.00 60 1007.1
20210509214204 62 242 0.0 0.0 0.00 0.00 0.00 60 1007.0
20210509213705 62 242 0.0 0.0 0.00 0.00 0.00 60 1007.0
20210509213205 62 242 0.0 0.0 0.00 0.00 0.00 59 1007.0
20210509212705 63 242 0.0 0.0 0.00 0.00 0.00 58 1007.0
20210509212204 63 242 0.0 0.0 0.00 0.00 0.00 58 1007.0
20210509211705 63 242 0.0 0.0 0.00 0.00 0.00 57 1006.9
20210509211205 64 242 0.0 0.0 0.00 0.00 0.00 56 1006.8
20210509210704 64 243 0.0 0.0 0.00 0.00 0.00 56 1006.8
20210509210205 64 228 0.0 0.0 0.00 0.00 0.00 55 1006.8
20210509205704 64 232 0.0 0.0 0.00 0.00 0.00 55 1006.7
20210509205205 64 221 0.0 0.0 0.00 0.00 0.00 55 1006.6
20210509204704 64 221 0.0 0.0 0.00 0.00 0.00 55 1006.6
20210509204205 64 221 0.0 0.0 0.00 0.00 0.00 56 1006.6
20210509203705 64 168 0.0 0.0 0.00 0.00 0.00 57 1006.5
20210509203205 64 168 0.0 0.0 0.00 0.00 0.00 57 1006.5
20210509202704 64 109 0.0 0.0 0.00 0.00 0.00 58 1006.4
20210509202204 64 0 0.0 0.0 0.00 0.00 0.00 58 1006.4
20210509201704 64 0 0.0 0.0 0.00 0.00 0.00 58 1006.4
20210509201204 64 0 0.0 0.0 0.00 0.00 0.00 57 1006.4
20210509200704 64 0 0.0 0.0 0.00 0.00 0.00 58 1006.5
20210509200205 64 0 0.0 0.0 0.00 0.00 0.00 58 1006.4
20210509195704 65 93 0.0 0.0 0.00 0.00 0.00 56 1006.5
20210509195206 65 92 0.0 0.0 0.00 0.00 0.00 55 1006.4
20210509194704 66 0 0.0 0.0 0.00 0.00 0.00 54 1006.5
20210509194205 66 0 0.0 0.0 0.00 0.00 0.00 54 1006.5
20210509193704 67 0 0.0 0.0 0.00 0.00 0.00 52 1006.5
20210509193208 67 0 0.0 0.0 0.00 0.00 0.00 50 1006.5
20210509192705 68 0 0.0 0.0 0.00 0.00 0.00 50 1006.4
20210509192204 68 0 0.0 0.0 0.00 0.00 0.00 49 1006.3
20210509191704 68 0 0.0 0.0 0.00 0.00 0.00 48 1006.5
20210509191205 68 0 0.0 0.0 0.00 0.00 0.00 48 1006.5
20210509190705 69 0 0.0 0.0 0.00 0.00 0.00 48 1006.5
20210509190204 69 0 0.0 0.0 0.00 0.00 0.00 47 1006.5
20210509185704 69 0 0.0 0.0 0.00 0.00 0.00 46 1006.5
20210509185205 70 0 0.0 0.0 0.00 0.00 0.00 46 1006.5
20210509184704 70 0 0.0 0.0 0.00 0.00 0.00 45 1006.5
20210509184208 70 0 0.0 0.0 0.00 0.00 0.00 45 1006.5
20210509183704 71 0 0.0 0.0 0.00 0.00 0.00 44 1006.5
20210509183205 71 0 0.0 0.0 0.00 0.00 0.00 44 1006.4
20210509182704 71 0 0.0 0.0 0.00 0.00 0.00 43 1006.4
20210509182205 72 0 0.0 0.0 0.00 0.00 0.00 42 1006.4
20210509181705 72 0 0.0 0.0 0.00 0.00 0.00 42 1006.3
20210509181205 72 0 0.0 0.0 0.00 0.00 0.00 41 1006.2
20210509180704 72 0 0.0 0.0 0.00 0.00 0.00 40 1006.2
20210509180205 73 0 0.0 0.0 0.00 0.00 0.00 40 1006.3
20210509175704 73 0 0.0 1.0 0.00 0.00 0.00 40 1006.4
20210509175205 73 0 0.0 1.0 0.00 0.00 0.00 39 1006.4
20210509174713 73 0 0.0 1.0 0.00 0.00 0.00 39 1006.5
20210509174205 74 0 0.0 0.0 0.00 0.00 0.00 39 1006.4
20210509173704 74 0 0.0 3.0 0.00 0.00 0.00 38 1006.5
20210509173204 74 0 0.0 3.0 0.00 0.00 0.00 38 1006.4
20210509172705 74 0 0.0 3.0 0.00 0.00 0.00 38 1006.5
20210509172204 74 0 0.0 1.0 0.00 0.00 0.00 38 1006.5
20210509171704 75 0 0.0 1.0 0.00 0.00 0.00 38 1006.4
20210509171204 75 0 0.0 0.0 0.00 0.00 0.00 38 1006.5
20210509170704 75 0 0.0 0.0 0.00 0.00 0.00 38 1006.6
20210509170204 75 0 0.0 0.0 0.00 0.00 0.00 38 1006.5
20210509165704 76 0 0.0 1.0 0.00 0.00 0.00 37 1006.5
20210509165205 76 0 0.0 1.0 0.00 0.00 0.00 36 1006.5
20210509164705 76 49 0.0 1.0 0.00 0.00 0.00 35 1006.5
20210509164204 77 80 0.0 0.0 0.00 0.00 0.00 35 1006.5
20210509163704 77 96 0.0 1.0 0.00 0.00 0.00 34 1006.4
20210509163208 78 92 0.0 3.0 0.00 0.00 0.00 33 1006.5
20210509162704 78 59 0.0 3.0 0.00 0.00 0.00 33 1006.6
20210509162204 78 67 0.0 3.0 0.00 0.00 0.00 32 1006.6
20210509161704 78 69 0.0 7.0 0.00 0.00 0.00 32 1006.6
20210509161205 78 44 0.0 7.0 0.00 0.00 0.00 33 1006.7
20210509160705 78 74 0.0 7.0 0.00 0.00 0.00 34 1006.7
20210509160205 78 96 0.0 11.0 0.00 0.00 0.00 34 1006.8
20210509155704 78 84 0.0 11.0 0.00 0.00 0.00 34 1006.9
20210509155205 78 119 0.0 11.0 0.00 0.00 0.00 34 1007.0
20210509154704 78 58 0.0 1.0 0.00 0.00 0.00 34 1007.1
20210509154204 78 105 0.0 1.0 0.00 0.00 0.00 34 1007.1
20210509153705 78 98 0.0 2.0 0.00 0.00 0.00 34 1007.3
20210509153208 79 104 0.0 2.0 0.00 0.00 0.00 34 1007.3
20210509152704 79 82 0.0 10.0 0.00 0.00 0.00 33 1007.4
20210509152208 79 124 0.0 10.0 0.00 0.00 0.00 33 1007.3
20210509151704 79 43 0.0 10.0 0.00 0.00 0.00 34 1007.3
20210509151208 80 97 0.0 9.0 0.00 0.00 0.00 32 1007.4
20210509150705 80 107 0.0 9.0 0.00 0.00 0.00 31 1007.4
20210509150204 80 58 0.0 9.0 0.00 0.00 0.00 31 1007.4
20210509145705 80 70 0.0 1.0 0.00 0.00 0.00 30 1007.5
20210509145204 80 66 0.0 1.0 0.00 0.00 0.00 29 1007.6
20210509144705 79 72 0.0 6.0 0.00 0.00 0.00 28 1007.9
20210509144205 80 49 0.0 6.0 0.00 0.00 0.00 28 1007.8
20210509143704 80 105 0.0 6.0 0.00 0.00 0.00 27 1007.8
20210509143205 80 58 0.0 0.0 0.00 0.00 0.00 28 1007.9
20210509142704 80 82 0.0 0.0 0.00 0.00 0.00 29 1008.0
20210509142205 80 78 0.0 0.0 0.00 0.00 0.00 27 1007.9
20210509141705 80 66 0.0 0.0 0.00 0.00 0.00 30 1008.1
20210509141204 80 112 0.0 1.0 0.00 0.00 0.00 29 1008.2
20210509140704 80 111 0.0 1.0 0.00 0.00 0.00 28 1008.2
20210509140205 79 86 0.0 1.0 0.00 0.00 0.00 30 1008.3
20210509135704 79 100 0.0 0.0 0.00 0.00 0.00 29 1008.3
20210509135205 79 95 0.0 0.0 0.00 0.00 0.00 29 1008.4
20210509134704 80 86 0.0 0.0 0.00 0.00 0.00 30 1008.5
20210509134205 80 72 0.0 0.0 0.00 0.00 0.00 30 1008.7
20210509133704 80 78 0.0 0.0 0.00 0.00 0.00 29 1008.7
20210509133204 80 105 0.0 0.0 0.00 0.00 0.00 27 1008.7
20210509132705 80 115 0.0 10.0 0.00 0.00 0.00 26 1008.8
20210509132205 80 113 0.0 10.0 0.00 0.00 0.00 23 1008.9
20210509131705 80 59 0.0 10.0 0.00 0.00 0.00 22 1008.9
20210509131206 80 94 0.0 0.0 0.00 0.00 0.00 23 1008.9
20210509130704 80 111 0.0 0.0 0.00 0.00 0.00 22 1009.0
20210509130205 80 69 0.0 1.0 0.00 0.00 0.00 22 1009.1
20210509125705 80 89 0.0 1.0 0.00 0.00 0.00 23 1009.3
20210509125205 80 86 0.0 3.0 0.00 0.00 0.00 23 1009.4
20210509124705 80 119 0.0 3.0 0.00 0.00 0.00 22 1009.4
20210509124208 80 99 0.0 0.0 0.00 0.00 0.00 25 1009.4
20210509123704 80 124 0.0 0.0 0.00 0.00 0.00 26 1009.5
20210509123205 80 89 0.0 0.0 0.00 0.00 0.00 25 1009.6
20210509122705 80 80 0.0 0.0 0.00 0.00 0.00 25 1009.6
20210509122204 80 77 0.0 1.0 0.00 0.00 0.00 23 1009.8
20210509121704 80 50 0.0 1.0 0.00 0.00 0.00 25 1009.9
20210509121204 79 121 0.0 0.0 0.00 0.00 0.00 25 1010.0
20210509120704 80 111 0.0 1.0 0.00 0.00 0.00 23 1010.0
20210509120205 79 84 0.0 1.0 0.00 0.00 0.00 23 1010.1
20210509115705 79 59 0.0 1.0 0.00 0.00 0.00 22 1010.2
20210509115205 79 82 0.0 0.0 0.00 0.00 0.00 22 1010.3
20210509114705 80 117 0.0 0.0 0.00 0.00 0.00 24 1010.3
20210509114205 79 95 0.0 11.0 0.00 0.00 0.00 24 1010.3
20210509113704 79 103 0.0 11.0 0.00 0.00 0.00 25 1010.4
20210509113205 79 104 0.0 11.0 0.00 0.00 0.00 27 1010.5
20210509112705 79 94 0.0 0.0 0.00 0.00 0.00 28 1010.5
20210509112204 79 205 0.0 10.0 0.00 0.00 0.00 28 1010.5
20210509111704 79 103 0.0 10.0 0.00 0.00 0.00 28 1010.6
20210509111205 79 119 0.0 10.0 0.00 0.00 0.00 27 1010.7
20210509110705 79 94 0.0 10.0 0.00 0.00 0.00 25 1010.7
20210509110204 79 51 0.0 10.0 0.00 0.00 0.00 26 1010.9
20210509105705 79 161 0.0 1.0 0.00 0.00 0.00 26 1010.9
20210509105205 79 124 0.0 1.0 0.00 0.00 0.00 27 1010.9
20210509104705 79 140 0.0 1.0 0.00 0.00 0.00 29 1011.0
20210509104205 79 126 0.0 0.0 0.00 0.00 0.00 29 1011.0
20210509103704 79 0 0.0 0.0 0.00 0.00 0.00 28 1011.1
20210509103205 78 0 0.0 0.0 0.00 0.00 0.00 32 1011.2
20210509102704 78 0 0.0 0.0 0.00 0.00 0.00 32 1011.2
20210509101704 77 118 0.0 0.0 0.00 0.00 0.00 34 1011.3
20210509101205 77 61 0.0 0.0 0.00 0.00 0.00 34 1011.3
20210509100205 77 48 0.0 0.0 0.00 0.00 0.00 35 1011.4
20210509095705 76 115 0.0 0.0 0.00 0.00 0.00 36 1011.5
20210509094704 76 0 0.0 0.0 0.00 0.00 0.00 36 1011.8
20210509094205 76 0 0.0 0.0 0.00 0.00 0.00 38 1011.9
20210509093204 76 0 0.0 0.0 0.00 0.00 0.00 37 1011.9
20210509092705 76 0 0.0 1.0 0.00 0.00 0.00 37 1011.9
20210509091704 76 0 0.0 0.0 0.00 0.00 0.00 37 1012.0
20210509091207 75 177 0.0 0.0 0.00 0.00 0.00 37 1012.1
20210509090204 74 0 0.0 0.0 0.00 0.00 0.00 37 1012.2
20210509085705 74 0 0.0 0.0 0.00 0.00 0.00 36 1012.2
20210509084704 74 0 0.0 0.0 0.00 0.00 0.00 36 1012.3
20210509084205 73 0 0.0 0.0 0.00 0.00 0.00 38 1012.4
20210509083205 72 0 0.0 0.0 0.00 0.00 0.00 39 1012.4
20210509082704 71 236 0.0 0.0 0.00 0.00 0.00 41 1012.4
20210509081708 70 0 0.0 0.0 0.00 0.00 0.00 42 1012.5
20210509081205 70 0 0.0 0.0 0.00 0.00 0.00 41 1012.6
20210509080704 69 0 0.0 0.0 0.00 0.00 0.00 43 1012.6
20210509080205 69 0 0.0 0.0 0.00 0.00 0.00 43 1012.7
20210509075704 69 0 0.0 1.0 0.00 0.00 0.00 44 1012.7
20210509075204 69 111 0.0 1.0 0.00 0.00 0.00 44 1012.7
20210509074704 69 81 0.0 1.0 0.00 0.00 0.00 44 1012.7
20210509074207 68 0 0.0 0.0 0.00 0.00 0.00 46 1012.7
20210509073704 68 0 0.0 0.0 0.00 0.00 0.00 48 1012.7
20210509073205 67 0 0.0 0.0 0.00 0.00 0.00 47 1012.7
20210509072704 67 0 0.0 0.0 0.00 0.00 0.00 47 1012.7
20210509072205 66 0 0.0 0.0 0.00 0.01 0.00 49 1012.8
20210509071705 66 0 0.0 0.0 0.00 0.01 0.00 48 1012.8
20210509071214 66 0 0.0 0.0 0.00 0.01 0.00 50 1012.8
20210509070704 65 98 0.0 0.0 0.00 0.01 0.00 51 1012.8
20210509070205 64 0 0.0 2.0 0.00 0.01 0.00 52 1012.8
20210509065707 64 0 0.0 2.0 0.00 0.01 0.00 53 1012.8
20210509065205 63 0 0.0 0.0 0.00 0.01 0.00 53 1012.8
20210509064704 62 0 0.0 0.0 0.00 0.01 0.00 58 1012.8
20210509064204 62 0 0.0 0.0 0.00 0.01 0.00 57 1012.8
20210509063704 62 0 0.0 0.0 0.00 0.01 0.00 58 1012.8
20210509063205 60 0 0.0 0.0 0.00 0.01 0.00 58 1012.9
20210509062704 60 0 0.0 0.0 0.00 0.01 0.00 60 1012.9
20210509062205 59 0 0.0 0.0 0.00 0.01 0.00 60 1012.9
20210509061704 58 0 0.0 0.0 0.00 0.01 0.00 62 1012.9
20210509061209 57 0 0.0 0.0 0.00 0.01 0.00 62 1012.9
20210509060704 56 0 0.0 0.0 0.00 0.01 0.00 63 1012.9
20210509060204 56 0 0.0 0.0 0.00 0.01 0.00 65 1013.0
20210509055704 55 0 0.0 0.0 0.00 0.01 0.00 64 1013.0
20210509055205 56 0 0.0 0.0 0.00 0.01 0.00 62 1013.0
20210509054705 56 0 0.0 0.0 0.00 0.01 0.00 63 1013.1
20210509054204 56 0 0.0 0.0 0.00 0.01 0.00 63 1013.0
20210509053707 55 0 0.0 0.0 0.00 0.01 0.00 65 1013.0
20210509053205 55 0 0.0 0.0 0.00 0.01 0.00 64 1013.0
20210509052704 55 0 0.0 0.0 0.00 0.01 0.00 65 1013.1
20210509052207 54 0 0.0 0.0 0.00 0.01 0.00 67 1013.1
20210509051705 53 0 0.0 0.0 0.00 0.01 0.00 71 1013.2
20210509051204 52 0 0.0 0.0 0.00 0.01 0.00 73 1013.2
20210509050704 51 0 0.0 0.0 0.00 0.01 0.00 76 1013.2
20210509050205 50 208 0.0 0.0 0.00 0.01 0.00 79 1013.2
20210509045704 49 208 0.0 0.0 0.00 0.01 0.00 81 1013.2
20210509045205 47 208 0.0 0.0 0.00 0.01 0.00 84 1013.2
20210509044705 46 208 0.0 0.0 0.00 0.01 0.00 86 1013.2
20210509044204 45 208 0.0 0.0 0.00 0.01 0.00 87 1013.2
20210509043711 44 208 0.0 0.0 0.00 0.01 0.00 87 1013.3
20210509043205 44 208 0.0 0.0 0.00 0.01 0.00 88 1013.3
20210509042705 43 208 0.0 0.0 0.00 0.01 0.00 89 1013.2
20210509042204 43 208 0.0 0.0 0.00 0.01 0.00 89 1013.3
20210509041705 43 208 0.0 0.0 0.00 0.01 0.00 89 1013.3
20210509041205 42 208 0.0 0.0 0.00 0.01 0.00 88 1013.3
20210509040704 43 208 0.0 0.0 0.00 0.01 0.00 88 1013.3
20210509040208 43 208 0.0 0.0 0.00 0.01 0.00 88 1013.4
20210509035707 43 208 0.0 0.0 0.00 0.01 0.00 88 1013.4
20210509035208 43 208 0.0 0.0 0.00 0.01 0.00 88 1013.3
20210509034707 43 208 0.0 0.0 0.00 0.01 0.00 88 1013.3
20210509034204 43 208 0.0 0.0 0.00 0.01 0.00 88 1013.4
20210509033704 43 208 0.0 0.0 0.00 0.01 0.00 88 1013.4
20210509033205 43 208 0.0 0.0 0.00 0.01 0.00 88 1013.4
20210509032708 43 208 0.0 0.0 0.00 0.01 0.00 88 1013.4
20210509032205 43 208 0.0 0.0 0.00 0.01 0.00 88 1013.3
20210509031705 43 208 0.0 0.0 0.00 0.01 0.00 88 1013.3
20210509031205 43 208 0.0 0.0 0.00 0.01 0.00 88 1013.3
20210509030704 43 208 0.0 0.0 0.00 0.01 0.00 88 1013.3
20210509030208 43 208 0.0 0.0 0.00 0.01 0.00 87 1013.3